BAW7D EGLL-KLAX

Flight info

Callsign BAW7D
Flight time N/A
Altitude 34000
Route CPT L9 DIDZA N14 OKTAD DCT MEDOG DCT VATRY DCT REVNU DCT SUNOT/M084F340 DCT 58N020W 59N030W 60N040W 60N050W/M084F360 DCT RADUN N938B PEPKI/N0485F360 N938B LOPVI DCT DUMRU DCT KEMSA/N0498F380 DCT 54N090W DCT KOBID DCT OSMEE Q945 DIK DCT RECAP DCT CZI DCT OCS J107 BLD DCT HAKMN ANJLL4
Aircraft A388/J-SADE2E3FGHIJ3J4J5M1RWXY/LB1D1

Departure

Time 2026-05-04 09:20
Airport London Heathrow Airport (EGLL)

Arrival

Time N/A
Airport Los Angeles International Airport (KLAX)
Time Latitude Longitude Altitude Speed Heading
2026-05-04 08:21 51.47123 -0.47732 96 ft 0 kts 89°
2026-05-04 08:22 51.47124 -0.47732 96 ft 0 kts 89°
2026-05-04 09:03 51.47123 -0.47757 95 ft 4 kts 89°
2026-05-04 09:04 51.47123 -0.47800 92 ft 4 kts 89°
2026-05-04 09:04 51.47124 -0.47835 92 ft 4 kts 104°
2026-05-04 09:04 51.47136 -0.47866 93 ft 4 kts 160°
2026-05-04 09:04 51.47159 -0.47870 91 ft 4 kts 179°
2026-05-04 09:05 51.47184 -0.47871 91 ft 2 kts 179°
2026-05-04 09:05 51.47186 -0.47871 91 ft 0 kts 179°
2026-05-04 09:09 51.47173 -0.47870 93 ft 4 kts 179°
2026-05-04 09:09 51.47135 -0.47870 92 ft 7 kts 180°
2026-05-04 09:09 51.47075 -0.47870 91 ft 10 kts 178°
2026-05-04 09:09 51.46992 -0.47868 91 ft 13 kts 180°
2026-05-04 09:10 51.46895 -0.47868 91 ft 9 kts 180°
2026-05-04 09:10 51.46820 -0.47868 91 ft 10 kts 180°
2026-05-04 09:10 51.46805 -0.47868 91 ft 7 kts 180°
2026-05-04 09:10 51.46749 -0.47826 95 ft 7 kts 115°
2026-05-04 09:11 51.46743 -0.47776 92 ft 7 kts 88°
2026-05-04 09:11 51.46745 -0.47659 93 ft 14 kts 89°
2026-05-04 09:11 51.46745 -0.47506 94 ft 14 kts 90°
2026-05-04 09:11 51.46745 -0.47344 94 ft 15 kts 90°
2026-05-04 09:12 51.46746 -0.47179 95 ft 15 kts 90°
2026-05-04 09:12 51.46747 -0.47009 96 ft 15 kts 89°
2026-05-04 09:14 51.46748 -0.45744 94 ft 19 kts 90°
2026-05-04 09:14 51.46750 -0.45538 94 ft 18 kts 89°
2026-05-04 09:14 51.46750 -0.45336 92 ft 18 kts 91°
2026-05-04 09:14 51.46750 -0.45140 91 ft 17 kts 89°
2026-05-04 09:15 51.46751 -0.44949 91 ft 17 kts 89°
2026-05-04 09:15 51.46752 -0.44761 92 ft 17 kts 89°
2026-05-04 09:15 51.46753 -0.44575 92 ft 17 kts 89°
2026-05-04 09:15 51.46754 -0.44395 94 ft 16 kts 90°
2026-05-04 09:17 51.46767 -0.43642 93 ft 6 kts 123°
2026-05-04 09:18 51.46718 -0.43605 92 ft 13 kts 178°
2026-05-04 09:18 51.46622 -0.43604 91 ft 13 kts 180°
2026-05-04 09:18 51.46553 -0.43602 92 ft 8 kts 178°
2026-05-04 09:18 51.46514 -0.43604 93 ft 4 kts 209°
2026-05-04 09:19 51.46497 -0.43641 92 ft 5 kts 256°
2026-05-04 09:19 51.46494 -0.43718 92 ft 8 kts 270°
2026-05-04 09:19 51.46493 -0.44025 91 ft 61 kts 270°
2026-05-04 09:19 51.46489 -0.45094 93 ft 127 kts 270°
2026-05-04 09:20 51.46484 -0.46764 99 ft 168 kts 268°
2026-05-04 09:20 51.46455 -0.48674 497 ft 169 kts 270°
2026-05-04 09:20 51.46390 -0.50578 945 ft 173 kts 268°
2026-05-04 09:20 51.46343 -0.52515 1384 ft 178 kts 270°
2026-05-04 09:21 51.46312 -0.54586 1566 ft 192 kts 270°
2026-05-04 09:21 51.46283 -0.56816 1717 ft 207 kts 270°
2026-05-04 09:21 51.46253 -0.59161 1762 ft 220 kts 270°
2026-05-04 09:21 51.46221 -0.61710 1863 ft 240 kts 268°
2026-05-04 09:22 51.45973 -0.64436 2152 ft 257 kts 256°
2026-05-04 09:22 51.45573 -0.67279 2680 ft 263 kts 262°
2026-05-04 09:22 51.45421 -0.70197 3457 ft 262 kts 268°
2026-05-04 09:22 51.45380 -0.73137 4123 ft 265 kts 269°
2026-05-04 09:23 51.45365 -0.76098 4841 ft 266 kts 269°
2026-05-04 09:23 51.45352 -0.79072 5512 ft 268 kts 269°
2026-05-04 09:23 51.45335 -0.82078 6224 ft 269 kts 268°
2026-05-04 09:23 51.45311 -0.85090 6883 ft 271 kts 268°
2026-05-04 09:25 51.47462 -1.06935 10518 ft 317 kts 278°
2026-05-04 09:25 51.47866 -1.10515 10709 ft 332 kts 278°
2026-05-04 09:26 51.48284 -1.14202 11177 ft 338 kts 278°
2026-05-04 09:26 51.48705 -1.17886 11718 ft 341 kts 280°
2026-05-04 09:26 51.49481 -1.21447 12231 ft 346 kts 296°
2026-05-04 09:26 51.50876 -1.24604 12761 ft 353 kts 312°
2026-05-04 09:27 51.52695 -1.27311 13298 ft 357 kts 316°
2026-05-04 09:27 51.54528 -1.30043 13836 ft 360 kts 315°
2026-05-04 09:27 51.56350 -1.32798 14308 ft 362 kts 315°
2026-05-04 09:27 51.58186 -1.35589 14832 ft 363 kts 315°
2026-05-04 09:28 51.59972 -1.38486 15269 ft 365 kts 309°
2026-05-04 09:28 51.61489 -1.41772 15749 ft 366 kts 300°
2026-05-04 09:28 51.62725 -1.45361 16217 ft 368 kts 296°
2026-05-04 09:28 51.63928 -1.49027 16678 ft 371 kts 296°
2026-05-04 09:29 51.65152 -1.52693 17141 ft 373 kts 296°
2026-05-04 09:29 51.66387 -1.56389 17596 ft 376 kts 296°
2026-05-04 09:29 51.67627 -1.60109 18051 ft 378 kts 296°
2026-05-04 09:29 51.68873 -1.63858 18473 ft 380 kts 296°
2026-05-04 09:30 51.69940 -1.67745 18888 ft 379 kts 287°
2026-05-04 09:30 51.70634 -1.71852 19302 ft 379 kts 279°
2026-05-04 09:30 51.70979 -1.76052 19710 ft 378 kts 274°
2026-05-04 09:30 51.71265 -1.80220 20113 ft 379 kts 274°
2026-05-04 09:31 51.71578 -1.84448 20514 ft 381 kts 276°
2026-05-04 09:31 51.72126 -1.88650 20921 ft 383 kts 282°
2026-05-04 09:31 51.72771 -1.92825 21302 ft 385 kts 281°
2026-05-04 09:31 51.73405 -1.97039 21617 ft 388 kts 281°
2026-05-04 09:32 51.74033 -2.01273 22012 ft 389 kts 281°
2026-05-04 09:32 51.74663 -2.05540 22412 ft 390 kts 281°
2026-05-04 09:34 51.79083 -2.35770 24705 ft 403 kts 281°
2026-05-04 09:34 51.79725 -2.40210 24991 ft 405 kts 281°
2026-05-04 09:34 51.80365 -2.44645 25254 ft 408 kts 281°
2026-05-04 09:34 51.81014 -2.49164 25354 ft 415 kts 281°
2026-05-04 09:35 51.81668 -2.53724 25687 ft 417 kts 281°
2026-05-04 09:35 51.82316 -2.58299 26016 ft 419 kts 281°
2026-05-04 09:35 51.82943 -2.62906 26332 ft 421 kts 280°
2026-05-04 09:35 51.83566 -2.67540 26643 ft 423 kts 280°
2026-05-04 09:37 51.87999 -3.00710 28818 ft 446 kts 281°
2026-05-04 09:37 51.88650 -3.05629 29190 ft 449 kts 281°
2026-05-04 09:38 51.89309 -3.10635 29513 ft 452 kts 281°
2026-05-04 09:38 51.89957 -3.15564 29768 ft 456 kts 281°
2026-05-04 09:38 51.90617 -3.20609 30139 ft 458 kts 281°
2026-05-04 09:38 51.91274 -3.25649 30491 ft 459 kts 281°
2026-05-04 09:39 51.91934 -3.30732 30791 ft 461 kts 281°
2026-05-04 09:39 51.92594 -3.35837 31059 ft 464 kts 281°
2026-05-04 09:39 51.93260 -3.40995 31296 ft 467 kts 281°
2026-05-04 09:39 51.93923 -3.46172 31510 ft 472 kts 282°
2026-05-04 09:40 51.94628 -3.51388 31774 ft 474 kts 285°
2026-05-04 09:40 51.95671 -3.56471 32094 ft 475 kts 293°
2026-05-04 09:40 51.97066 -3.61272 32373 ft 477 kts 298°
2026-05-04 09:40 51.98624 -3.66039 32650 ft 479 kts 298°
2026-05-04 09:41 52.00170 -3.70853 32892 ft 482 kts 298°
2026-05-04 09:42 52.11172 -4.05486 34028 ft 503 kts 298°
2026-05-04 09:43 52.14364 -4.15620 34031 ft 504 kts 298°
2026-05-04 09:43 52.17533 -4.25721 34031 ft 504 kts 298°
2026-05-04 09:44 52.20714 -4.35905 34017 ft 504 kts 298°
2026-05-04 09:46 52.33485 -4.77218 34081 ft 511 kts 299°
2026-05-04 09:46 52.36664 -4.87613 34077 ft 510 kts 299°
2026-05-04 09:47 52.39826 -4.97999 34074 ft 509 kts 299°
2026-05-04 09:49 52.52337 -5.39529 34057 ft 508 kts 300°
2026-05-04 09:51 52.65835 -5.73019 34065 ft 502 kts 311°
2026-05-04 09:51 52.69994 -5.82286 34073 ft 503 kts 311°
2026-05-04 09:52 52.74157 -5.91602 34084 ft 504 kts 311°
2026-05-04 09:52 52.78310 -6.00932 34086 ft 504 kts 311°
2026-05-04 09:53 52.82459 -6.10293 34081 ft 505 kts 311°
2026-05-04 09:53 52.85903 -6.18086 34068 ft 505 kts 311°
2026-05-04 09:54 52.90681 -6.28939 34104 ft 505 kts 311°
2026-05-04 09:54 52.94817 -6.38368 34096 ft 506 kts 311°
2026-05-04 09:55 52.98251 -6.46228 34076 ft 506 kts 311°
2026-05-04 09:55 53.02375 -6.55698 34073 ft 505 kts 311°
2026-05-04 09:56 53.06479 -6.65157 34101 ft 504 kts 311°
2026-05-04 09:56 53.10568 -6.74612 34100 ft 502 kts 310°
2026-05-04 09:57 53.14559 -6.83881 34088 ft 501 kts 310°
2026-05-04 09:57 53.18606 -6.93314 34070 ft 499 kts 310°
2026-05-04 09:58 53.22613 -7.02684 34062 ft 499 kts 310°
2026-05-04 09:58 53.26635 -7.12127 34058 ft 499 kts 310°
2026-05-04 10:00 53.42643 -7.50064 34082 ft 500 kts 310°
2026-05-04 10:04 53.70300 -8.16987 34093 ft 497 kts 309°
2026-05-04 10:04 53.74231 -8.26642 34518 ft 495 kts 308°
2026-05-04 10:04 53.76173 -8.31429 34952 ft 494 kts 308°
2026-05-04 10:05 53.78114 -8.36221 35343 ft 492 kts 308°
2026-05-04 10:05 53.80022 -8.40941 35720 ft 491 kts 307°
2026-05-04 10:05 53.81946 -8.45709 36038 ft 491 kts 307°
2026-05-04 10:06 53.85784 -8.55248 36104 ft 485 kts 307°
2026-05-04 10:06 53.89575 -8.64707 36086 ft 487 kts 307°
2026-05-04 10:08 54.02801 -8.97980 36107 ft 486 kts 307°
2026-05-04 10:08 54.06563 -9.07526 36112 ft 485 kts 307°
2026-05-04 10:09 54.10290 -9.17018 36113 ft 485 kts 306°
2026-05-04 10:09 54.14044 -9.26617 36123 ft 485 kts 306°
2026-05-04 10:10 54.17761 -9.36159 36140 ft 484 kts 306°
2026-05-04 10:10 54.21482 -9.45746 36141 ft 483 kts 306°
2026-05-04 10:11 54.25172 -9.55292 36131 ft 482 kts 306°
2026-05-04 10:11 54.28870 -9.64894 36138 ft 481 kts 306°
2026-05-04 10:12 54.32533 -9.74441 36133 ft 481 kts 306°
2026-05-04 10:12 54.36212 -9.84066 36145 ft 480 kts 305°
2026-05-04 10:13 54.39864 -9.93659 36158 ft 479 kts 305°
2026-05-04 10:13 54.43481 -10.03181 36148 ft 478 kts 305°
2026-05-04 10:14 54.47237 -10.12559 36148 ft 474 kts 313°
2026-05-04 10:16 54.65655 -10.44940 36145 ft 472 kts 315°
2026-05-04 10:16 54.70224 -10.53024 36145 ft 472 kts 315°
2026-05-04 10:17 54.74777 -10.61106 36143 ft 472 kts 315°
2026-05-04 10:19 54.93007 -10.93751 36141 ft 470 kts 315°
2026-05-04 10:19 54.97531 -11.01922 36136 ft 470 kts 314°
2026-05-04 10:20 55.02071 -11.10151 36140 ft 470 kts 314°
2026-05-04 10:20 55.06569 -11.18331 36139 ft 469 kts 314°
2026-05-04 10:21 55.11060 -11.26530 36137 ft 468 kts 314°
2026-05-04 10:21 55.15567 -11.34785 36135 ft 468 kts 314°
2026-05-04 10:22 55.22289 -11.47150 36128 ft 468 kts 314°
2026-05-04 10:23 55.26771 -11.55430 36138 ft 467 kts 313°
2026-05-04 10:25 55.44558 -11.88584 36121 ft 466 kts 313°
2026-05-04 10:25 55.48996 -11.96930 36120 ft 466 kts 313°
2026-05-04 10:26 55.53424 -12.05285 36118 ft 466 kts 313°
2026-05-04 10:26 55.57843 -12.13654 36126 ft 466 kts 313°
2026-05-04 10:27 55.62259 -12.22045 36128 ft 466 kts 313°
2026-05-04 10:27 55.66646 -12.30413 36129 ft 466 kts 313°
2026-05-04 10:28 55.71065 -12.38869 36147 ft 466 kts 313°
2026-05-04 10:28 55.75468 -12.47325 36139 ft 465 kts 312°
2026-05-04 10:29 55.79848 -12.55769 36133 ft 464 kts 312°
2026-05-04 10:29 55.84196 -12.64182 36126 ft 464 kts 312°
2026-05-04 10:30 55.88566 -12.72665 36119 ft 464 kts 312°
2026-05-04 10:30 55.92925 -12.81157 36136 ft 463 kts 311°
2026-05-04 10:31 55.97239 -12.89594 36127 ft 462 kts 311°
2026-05-04 10:32 56.12368 -13.19418 36121 ft 462 kts 311°
2026-05-04 10:33 56.16670 -13.27965 36127 ft 461 kts 310°
2026-05-04 10:33 56.20943 -13.36489 36126 ft 461 kts 310°
2026-05-04 10:34 56.25232 -13.45075 36118 ft 461 kts 310°
2026-05-04 10:34 56.29512 -13.53675 36117 ft 461 kts 310°
2026-05-04 10:35 56.33767 -13.62253 36116 ft 461 kts 310°
2026-05-04 10:35 56.38034 -13.70885 36136 ft 460 kts 309°
2026-05-04 10:36 56.42292 -13.79534 36129 ft 460 kts 309°
2026-05-04 10:36 56.46508 -13.88130 36124 ft 459 kts 309°
2026-05-04 10:37 56.50738 -13.96783 36111 ft 459 kts 309°
2026-05-04 10:37 56.54963 -14.05459 36109 ft 459 kts 309°
2026-05-04 10:39 56.69660 -14.35887 36112 ft 458 kts 309°
2026-05-04 10:40 56.73865 -14.44666 36100 ft 458 kts 309°
2026-05-04 10:40 56.78030 -14.53392 36097 ft 458 kts 308°
2026-05-04 10:41 56.81505 -14.60700 36114 ft 458 kts 308°
2026-05-04 10:41 56.86363 -14.70950 36117 ft 457 kts 308°
2026-05-04 10:42 56.89842 -14.78317 36115 ft 457 kts 308°
2026-05-04 10:42 56.93971 -14.87082 36107 ft 457 kts 308°
2026-05-04 10:43 56.98036 -14.96029 36106 ft 456 kts 304°
2026-05-04 10:44 57.07346 -15.32782 36128 ft 454 kts 291°
2026-05-04 10:45 57.08544 -15.38150 36128 ft 454 kts 291°
2026-05-04 10:45 57.10928 -15.48917 36124 ft 454 kts 291°
2026-05-04 10:46 57.13281 -15.59617 36118 ft 454 kts 291°
2026-05-04 10:46 57.15640 -15.70395 36120 ft 454 kts 291°
2026-05-04 10:47 57.17991 -15.81198 36118 ft 454 kts 291°
2026-05-04 10:47 57.20337 -15.92027 36136 ft 454 kts 291°
2026-05-04 10:49 57.29602 -16.35378 36117 ft 453 kts 290°
2026-05-04 10:50 57.31883 -16.46191 36121 ft 453 kts 290°
2026-05-04 10:52 57.40964 -16.89825 36144 ft 454 kts 290°
2026-05-04 10:52 57.43209 -17.00760 36124 ft 453 kts 290°
2026-05-04 10:54 57.52064 -17.44482 36142 ft 455 kts 290°
2026-05-04 10:56 57.60837 -17.88767 36148 ft 456 kts 289°
2026-05-04 10:57 57.63011 -17.99899 36153 ft 457 kts 289°
2026-05-04 10:57 57.65181 -18.11074 36157 ft 457 kts 289°
2026-05-04 10:58 57.67329 -18.22199 36159 ft 458 kts 289°
2026-05-04 10:58 57.69482 -18.33412 36186 ft 458 kts 289°
2026-05-04 10:59 57.71626 -18.44647 36148 ft 459 kts 289°
2026-05-04 10:59 57.73766 -18.55930 36141 ft 460 kts 289°
2026-05-04 11:00 57.75899 -18.67234 36151 ft 461 kts 289°
2026-05-04 11:02 57.84367 -19.12797 36177 ft 464 kts 288°
2026-05-04 11:05 57.99759 -19.98559 36145 ft 460 kts 287°
2026-05-04 11:06 58.01402 -20.10229 36171 ft 460 kts 284°
2026-05-04 11:06 58.03059 -20.21884 36171 ft 460 kts 285°
2026-05-04 11:10 58.14382 -21.04086 36210 ft 463 kts 284°
2026-05-04 11:12 58.20582 -21.51273 36181 ft 461 kts 283°
2026-05-04 11:12 58.22105 -21.63097 36184 ft 461 kts 283°
2026-05-04 11:13 58.23615 -21.74919 36190 ft 461 kts 283°
2026-05-04 11:13 58.25117 -21.86773 36193 ft 462 kts 283°
2026-05-04 11:14 58.26601 -21.98577 36192 ft 462 kts 283°
2026-05-04 11:16 58.32463 -22.46191 36204 ft 463 kts 283°
2026-05-04 11:16 58.33902 -22.58129 36206 ft 463 kts 283°
2026-05-04 11:17 58.35324 -22.70026 36207 ft 463 kts 283°
2026-05-04 11:19 58.40932 -23.17977 36212 ft 463 kts 282°
2026-05-04 11:19 58.42306 -23.29992 36212 ft 463 kts 282°
2026-05-04 11:20 58.43669 -23.42014 36212 ft 463 kts 282°
2026-05-04 11:20 58.45014 -23.53984 36211 ft 463 kts 282°
2026-05-04 11:22 58.50309 -24.02210 36216 ft 464 kts 282°
2026-05-04 11:23 58.51608 -24.14330 36219 ft 464 kts 282°
2026-05-04 11:25 58.56043 -24.56584 36217 ft 464 kts 281°
2026-05-04 11:25 58.57289 -24.68722 36217 ft 464 kts 281°